OPS 9845 (DMSP 5D-2 F6)

Satellite information

Favourite Embed

Satellite Type and Status

PAYLOADIN ORBIT

Key statistics

Satellite OPS 9845 (DMSP 5D-2 F6) at a glance.

Uptime

15658

Days in orbit

Revolutions

≈ 14.3

Per day

Orbit

SSO

Sun Synchronous Orbit

Inclination

98.6

Latest

Satellite identification and parameters

Extended collection of information and parameters for OPS 9845 (DMSP 5D-2 F6).

Object identification

Identified? True

Debris? False

Object name: OPS 9845 (DMSP 5D-2 F6)

International designator: 1982-118A

Object number (NORAD): 13736

Object ID (CCSDS): 13736

Country: UNITED STATES OF AMERICA (US)

Current information (Y/N): Y

RCS size: LARGE

Orbital parameters

Period: 100.672 minutes

Inclination: 98.5909 deg

SMA: 7168.55 km

Apoapsis: 795.049 km

Periapsis: 785.78 km

RAAN: 131.8978 deg

Eccentricy: 0.0006465

Argument of periapsis: 273.1771 deg

Mean anomaly: 86.8671 deg

Mean motion: 14.30394406 rev/day

Mean motion (dot): 0.00000271 rev/day2

B* drag term: 0.00012093 1/REarth

Two-line elements (TLE)

Creation date: Nov. 2, 2025, 3:46 p.m.

Reference frame: TEME

Reference center: EARTH

Epoch: Nov. 2, 2025, 12:27 p.m. UTC

TLE line 0: 0 OPS 9845 (DMSP 5D-2 F6)

TLE line 1: 1 13736U 82118A 25306.51923000 .00000271 00000-0 12093-3 0 9994

TLE line 2: 2 13736 98.5909 131.8978 0006465 273.1771 86.8671 14.30394406232601

Live tracking on map

Real-time ground track for satellite OPS 9845 (DMSP 5D-2 F6).

In-orbit conjunctions

There are no conjunctions computed for OPS 9845 (DMSP 5D-2 F6), at the moment. Check back to stay up to date, as we update our databases every day.

Go to all conjunctions

Associated space launch

Military meteorological satellite

OPS 9845 (DMSP 5D-2 F6) was lifted into orbit during the mission ‘Atlas E | DMSP-5D2 F6’, on board a Atlas E space rocket.

The launch took place on Dec. 21, 1982, 2:38 a.m. from Space Launch Complex 3W.

For more information about the launch, click the button.

Launch to space Atlas E | DMSP-5D2 F6
Atlas E | DMSP-5D2 F6

Agency: N/A

Status: Launch Successful

Launch date: Dec. 21, 1982, 2:38 a.m. UTC

Rocket: Atlas E

Launch pad: Space Launch Complex 3W

Location: Vandenberg SFB, CA, USA

...

Latest news about this satellite

There are no fresh news available about this satellite. Check back as we update our databases every day.


Newsletter sign-up

Weekly statistics, charts and insights to help you stay on top of the space industry.